www.pogodaiklimat.ru

Погода и климат >> Архив погоды >> Беларусь >> Ганцевичи


ПОГОДА в Ганцевичах

  • Прогноз погоды в Ганцевичах
  • Монитор погоды в Ганцевичах
  • Климат города

АРХИВ ПОГОДЫ в Ганцевичах

Время (UTC), дата Ветер
(напр.,м/с)
 
Видим.   Явления Облачность Т
(С)
Тd
(С)
f
(%)
Тe
(С)
Тes
(С)
Комфортность P
(гПа)
Po
(гПа)
Тmin
(С)
Tmax
(С)
R
(мм)
R24
(мм)
S
(см)
06 16.09 Ю 1 10 км 3 балла +11.3 +8.5 83 +11 +12 1019.0 1000.0 +7.4
09 16.09 Ю 2 10 км 10 баллов +15.5 +9.8 69 +15 +15 1019.0 1000.3
12 16.09 Ю 1 10 км 10 баллов +16.4 +9.6 64 +17 +17 1018.0 999.4
15 16.09 ЮВ 2 6000 м ливневой дождь 10 баллов +12.2 +10.8 91 +11 +11 1019.0 1000.1
18 16.09 СВ 2 6000 м дымка 10 баллов +11.7 +10.1 90 +11 +11 1018.0 999.1 +17.6 2
06 17.09 ЮВ 1 6000 м дымка 10 баллов +12.9 +11.0 88 +13 +13 1013.0 994.2 +10.3
09 17.09 В 1 10 км 10 баллов +15.5 +12.6 83 +16 +16 1013.0 994.4
12 17.09 штиль 0 6000 м ливневой дождь 10 баллов +16.2 +14.2 88 +16 +16 1012.0 993.5
15 17.09 В 3 4000 м ливневой дождь 10 баллов +15.7 +15.4 98 +15 +15 1011.0 992.5
18 17.09 В 2 5000 м дымка 10 баллов +15.6 +15.1 97 +15 +15 1008.0 989.5 +17.7 4
06 18.09 ЮЗ 7
{13}
10 км 10 баллов +12.4 +9.4 82 +10 +10 1002.0 983.4 +12.2 8
09 18.09 ЮЗ 7
{14}
10 км 10 баллов +12.6 +8.9 78 +10 +10 1004.0 985.4
12 18.09 ЮЗ 8
{17}
10 км 10 баллов +14.0 +8.4 69 +12 +12 1005.0 986.4
15 18.09 З 8
{18}
10 км ливневой дождь 10 баллов +14.0 +8.8 71 +12 +12 1007.0 988.4
18 18.09 З 6
{16}
10 км 10 баллов +12.8 +7.9 72 +10 +10 1010.0 991.3 +14.4
06 19.09 З 3 6000 м дымка 6 баллов +9.0 +8.1 94 +6 +7 1017.0 997.9 +7.4
09 19.09 ЮЗ 3 10 км 3 балла +15.7 +7.7 59 +15 +19 1018.0 999.3
12 19.09 ЮЗ 3 10 км 6 баллов +17.7 +6.8 49 +18 +20 1018.0 999.4
15 19.09 штиль 0 10 км 6 баллов +16.7 +7.3 54 +17 +17 1018.0 999.4
18 19.09 штиль 0 6000 м дымка 10 баллов +11.4 +9.8 90 +11 +11 1019.0 1000.0 +18.4
06 20.09 В 2 4500 м ливневой дождь 10 баллов +10.6 +10.3 98 +9 +9 1019.0 1000.0 +10.2 5
09 20.09 СВ 3 5000 м ливневой дождь 10 баллов +11.7 +11.1 96 +10 +10 1018.0 999.1
12 20.09 В 4 6000 м дымка 10 баллов +13.5 +11.2 86 +12 +12 1017.0 998.2
15 20.09 СВ 3 6000 м дымка 10 баллов +14.2 +12.1 87 +13 +13 1016.0 997.3
18 20.09 В 2 6000 м дымка 10 баллов +13.0 +11.9 93 +12 +12 1016.0 997.2 +14.4 3
06 21.09 СВ 4 4000 м ливневой дождь 10 баллов +11.4 +10.8 96 +9 +9 1012.0 993.1 +11.0 1
09 21.09 В 4 6000 м дымка 10 баллов +13.6 +11.8 89 +12 +12 1011.0 992.3
12 21.09 СВ 1 6000 м дымка 10 баллов +15.3 +12.6 84 +16 +16 1011.0 992.4
15 21.09 СВ 1 6000 м дымка 10 баллов +16.0 +13.8 87 +17 +17 1011.0 992.5
18 21.09 штиль 0 6000 м дымка 10 баллов +15.2 +14.2 94 +15 +15 1012.0 993.4 +16.1
06 22.09 СВ 2 5000 м дымка 10 баллов +14.3 +13.7 96 +14 +14 1014.0 995.3 +11.2 6
09 22.09 В 3 10 км 10 баллов +18.6 +14.5 77 +20 +20 1016.0 997.6
12 22.09 СВ 4 10 км 10 баллов +19.7 +14.7 73 +22 +22 комфорт 1015.0 996.6
15 22.09 СВ 3
{10}
10 км 6 баллов +20.3 +15.3 73 +23 +23 комфорт 1015.0 996.7
18 22.09 В 2 10 км ясно +17.1 +13.2 78 +17 +17 1016.0 997.5 +20.6

 

Местоположение метеостанции Ганцевичи (Брестская область, Беларусь): широта 52.75 долгота 26.44 высота над уровнем моря 157 м.

В архиве по умолчанию представлена погода в Ганцевичах за последнюю неделю. Архивные данные за месяц целиком и за предыдущие месяцы, начиная с января 2011 года, Вы можете получить, выбрав интересующий диапазон дат из раскрывающегося списка и нажав кнопку "Ввод!".

Внимание! Время в таблицах - всемирное. Для получения местного времени необходимо прибавить поправку, которая в Ганцевичах равна 3 ч.

Смотрите также архив погоды в соседних городах и на ближайших метеорологических станциях:

Погода в Полесской (Брестская область, Беларусь) (53 км)
Погода в Ивацевичах (Брестская область, Беларусь) (73 км)
Погода в Пинске (Брестская область, Беларусь) (75 км)
Погода в Слуцке (Минская область, Беларусь) (81 км)
Погода в Столбцах (Минская область, Беларусь) (83 км)
Погода в Новогрудке (Гродненская область, Беларусь) (102 км)
Погода в Барановичах (Брестская область, Беларусь) (111 км)
Погода в Житковичах (Гомельская область, Беларусь) (113 км)
Погода в Пружанах (Брестская область, Беларусь) (133 км)
Погода в Марьиной Горке (Минская область, Беларусь) (137 км)

Пояснения к столбцам:

Ветер - указаны скорость ветра в м/с - средняя за 10 мин, порывы в срок и между сроками (в фигурных скобках) и направление, откуда дует ветер: С - северный, СВ - северо-восточный, В - восточный, ЮВ - юго-восточный, Ю - южный, ЮЗ - юго-западный, З - западный, СЗ - северо-западный.
Видимость - горизонтальная дальность видимости в метрах или километрах. При видимости от 1 до 10 км при отсутствии осадков обычно наблюдается дымка, при ухудшении видимости до 1 км и менее - туман. В сухую погоду видимость может ухудшаться дымом, пылью или мглою.
Явления - указаны атмосферные явления, наблюдавшиеся в срок или в последний час перед сроком; фигурными скобками обозначены явления, наблюдавшиеся между сроками (за 1-3 часа до срока); квадратными скобками обозначены град или гололедные отложения с указанием их диаметра в мм.
Облачность - указаны через наклонную черту общая и нижняя облачность в баллах и высота нижней границы облаков в метрах; квадратными скобками обозначены формы облаков: Ci - перистые, Cs - перисто-слоистые, Cc - перисто-кучевые, Ac - высококучевые, As - высокослоистые, Sc - слоисто-кучевые, Ns - слоисто-дождевые, Cu - кучевые, Cb - кучево-дождевые. Подробнее классификацию облаков см. в Атласе облаков (PDF).
T - Температура воздуха - температура, измеренная на высоте 2 м над землей.
Td - Температура точки росы - температура, при понижении до которой содержащийся в воздухе водяной пар достигнет насыщения.
f - Относительная влажность воздуха - влажноcть воздуха, измеренная на высоте 2 м над землей.
Te - Эффективная температура - температура, которую ощущает одетый по сезону человек в тени. Характеристика душности погоды. При расчете учитывается влияние влажности воздуха и скорости ветра на теплоощущения человека.
Tes - Эффективная температура на солнце - температура, которую ощущает человек, с поправкой на солнечный нагрев. Характеристика знойности погоды. Зависит от высоты солнца над горизонтом, облачности и скорости ветра. Ночью, в пасмурную погоду, а также при ветре 12 м/с и более поправка равна нулю.
P - Атмосферное давление - приведенное к уровню моря атмосферное давление.
Po - Атмосферное давление - измеренное на уровне метеостанции атмосферное давление.
Tmin - Минимальная температура - минимум температуры воздуха на высоте 2 м над землей.
Tmax - Максимальная температура - максимум температуры воздуха на высоте 2 м над землей.
R - Количество осадков - Количество выпавших осадков за период времени, мм. При наведении курсора мыши на число - период времени, за который выпало указанное количество осадков.
R24 - Количество осадков - Количество выпавших осадков за 24 часа, мм.
S - Снежный покров - Высота снежного покрова, см. При наведении курсора мыши на число - состояние снежного покрова и степень покрытия местности в баллах.